Probability
0 0 0 0 0 0 0 0 0 0 0 0 0 0 0 0 0 0 0 0 0 1 2 1 0 0 0 0 0 0 1 1 1 0 0 0 0 0 0 0 0 0 0 0 0 0 0 0 0
0 0 0 0 0 0 0 0 0 0 0 0 0 0 0 0 0 0 0 0 0 1 2 2 1 0 0 0 0 0 1 2 2 1 0 1 1 0 0 0 0 0 0 0 0 0 0 0 0
0 0 0 0 0 0 0 0 0 0 0 0 0 0 0 0 0 0 0 0 0 0 2 3 2 1 0 0 0 0 1 2 2 1 1 2 1 0 0 0 0 0 0 0 0 0 0 0 0
0 0 0 0 0 0 0 0 0 0 0 0 0 0 0 1 1 1 1 1 0 0 2 5 4 1 0 0 0 0 1 2 3 3 3 2 1 0 0 0 0 0 0 0 0 0 0 0 0
0 0 0 0 0 0 0 0 0 0 0 0 0 0 1 3 3 3 2 1 0 0 3 8 7 2 1 0 0 1 3 4 4 5 5 3 1 0 0 0 0 0 0 0 0 0 0 0 0
0 0 0 0 0 0 0 0 0 0 0 0 0 0 2 5 7 5 3 1 0 0 4 10 9 4 1 0 0 1 3 5 6 7 7 5 3 1 0 0 0 0 0 0 0 0 0 0 0
0 0 0 0 0 0 0 0 0 0 0 0 0 0 2 7 11 10 7 3 1 0 3 7 6 2 1 0 1 1 3 5 7 7 7 5 3 1 0 0 0 0 0 0 0 0 0 0 0
0 0 0 0 0 0 0 0 0 0 0 0 0 0 6 16 23 22 16 8 4 3 3 4 3 2 1 1 3 5 7 9 10 10 8 5 2 0 0 0 0 0 0 0 0 0 0 0 0
0 0 0 0 0 0 0 0 0 0 0 0 0 1 13 32 43 42 34 23 15 11 8 7 7 6 4 4 6 9 12 15 16 16 14 10 6 3 2 2 3 2 0 0 0 0 0 0 0
0 0 0 0 0 0 0 0 0 0 1 1 2 6 21 42 56 60 53 43 35 26 19 16 15 13 11 12 14 15 18 22 24 24 24 23 19 15 10 11 11 6 1 0 0 0 0 0 0
0 0 0 0 0 0 0 0 0 1 2 3 5 11 25 41 54 62 63 58 53 41 31 28 27 25 24 25 27 27 30 34 34 34 37 38 37 33 28 26 22 14 7 5 5 5 4 3 2
0 0 0 0 0 0 0 1 3 5 5 5 8 15 26 38 47 57 62 64 61 51 41 41 43 43 43 44 43 41 42 45 46 50 53 53 54 50 46 42 34 25 18 15 15 15 12 9 7
0 0 0 0 0 0 0 2 6 10 11 13 17 24 32 41 47 53 60 64 63 55 48 51 57 59 60 60 55 50 51 52 54 59 62 61 61 60 58 55 47 37 30 26 23 20 17 15 12
0 0 0 0 0 0 1 4 9 15 19 24 32 41 48 53 57 58 59 62 60 52 47 51 60 66 69 68 64 58 56 56 57 59 62 60 60 63 65 61 54 46 41 37 30 22 18 17 14
0 0 0 0 0 0 1 6 13 17 22 30 42 53 61 65 66 64 63 62 59 53 48 49 55 64 71 72 69 65 61 58 57 58 59 57 55 58 62 59 54 51 49 45 37 26 20 18 15
0 0 0 0 0 0 2 8 13 17 22 30 38 47 56 61 64 64 62 62 62 61 59 55 53 58 66 70 69 66 61 56 53 53 53 51 46 46 50 52 50 49 47 44 38 29 22 18 16
0 0 0 0 0 0 2 7 12 16 21 25 28 34 41 46 51 54 56 57 60 64 66 61 56 56 59 62 62 57 51 47 44 42 40 38 35 32 36 41 41 40 39 36 33 29 23 18 15
0 0 0 0 0 0 2 6 10 15 18 20 23 25 27 30 33 39 45 49 53 58 60 57 55 52 50 48 47 42 36 33 33 31 28 27 27 25 27 31 32 32 32 30 28 25 20 15 13
0 0 0 0 0 0 1 2 6 10 13 15 18 19 19 19 22 27 32 37 44 48 50 48 45 40 36 32 29 26 23 20 20 19 18 20 22 23 24 27 28 28 27 25 21 18 14 10 10
0 0 0 0 0 0 0 1 2 4 8 10 12 13 14 17 20 21 22 25 30 36 38 36 30 25 22 20 16 14 12 11 11 10 12 15 18 19 19 22 25 24 21 17 13 10 9 8 9
0 0 0 0 0 0 0 2 5 5 6 7 7 9 11 13 15 15 14 14 17 21 23 22 19 15 14 12 8 6 6 7 6 6 8 11 14 14 13 15 18 17 14 12 10 7 7 8 8
0 0 0 0 0 0 0 4 9 9 7 6 6 5 5 6 7 6 6 6 7 9 10 10 10 9 7 5 4 3 2 3 3 3 4 6 9 10 9 9 12 13 12 11 10 9 11 11 10
0 0 0 0 0 0 0 3 8 8 7 6 5 4 2 2 2 1 1 1 2 2 2 3 4 4 2 1 1 1 1 1 1 1 1 3 4 5 4 6 9 12 12 12 12 12 16 18 18
0 0 0 0 0 0 0 3 6 7 6 6 4 2 1 0 0 0 0 0 0 0 0 1 2 1 0 0 0 0 0 1 1 1 0 1 1 1 1 2 5 8 10 12 15 18 22 25 28
0 0 0 0 0 0 0 3 7 7 4 3 2 1 0 0 0 1 1 0 0 0 0 0 1 1 0 0 0 0 1 2 2 1 0 0 0 0 0 0 1 3 6 9 16 22 26 29 32
0 0 0 0 0 0 0 3 5 5 2 1 0 0 0 0 1 2 2 1 0 0 0 0 1 1 1 0 0 0 1 1 1 0 0 1 0 0 0 0 0 0 2 5 10 18 23 27 31
0 0 0 0 0 0 0 2 2 2 2 1 0 0 0 0 1 2 3 2 1 0 0 0 1 2 2 1 0 0 0 0 0 0 0 0 0 0 0 0 0 0 0 2 5 9 15 22 27
0 0 0 0 0 0 0 1 1 1 1 1 0 0 0 0 0 1 2 3 2 1 0 0 1 2 3 1 0 0 0 0 0 0 0 0 0 0 0 0 0 0 1 2 3 5 8 14 19
0 0 0 0 0 0 0 0 1 1 0 0 0 0 0 0 0 0 1 2 2 1 0 0 0 1 1 0 0 0 0 0 0 0 0 0 0 0 0 0 0 0 1 2 2 3 4 6 8
0 0 0 0 0 0 0 0 1 0 0 0 0 0 0 0 0 0 0 1 1 0 0 0 0 0 0 0 0 0 0 0 0 0 1 1 1 0 0 0 0 0 0 1 1 1 1 2 2
Wind_Speed
15 13 8 6 7 7 4 7 5 5 3 3 1 2 4 5 6 6 5 13 17 19 20 21 18 17 16 15 14 14 14 13 13 13 13 13 12 11 11 10 9 8 8 7 8 7 8 8 8
13 11 7 6 7 2 7 7 7 7 5 2 1 3 4 2 5 5 8 14 18 20 19 19 20 18 17 16 15 14 14 13 13 13 12 12 11 11 10 9 9 8 7 7 7 7 7 7 7
12 9 6 6 4 6 7 8 7 4 1 2 1 2 4 4 4 4 9 17 18 18 18 19 20 18 17 16 15 14 14 13 13 12 12 11 11 10 10 9 8 8 7 7 7 7 7 7 7
8 7 7 8 4 5 6 7 5 3 1 1 3 1 4 5 3 7 14 18 19 18 17 20 20 18 17 16 15 14 14 13 12 12 11 11 10 10 9 9 8 8 7 7 7 7 7 7 7
7 7 8 6 2 4 4 5 5 4 3 1 2 1 5 6 6 11 16 17 18 18 16 20 19 18 17 16 15 14 13 13 12 11 11 10 10 10 9 9 9 8 7 7 7 7 7 7 7
6 7 9 5 3 3 4 6 5 6 4 1 2 0 6 7 9 13 15 15 16 16 16 18 18 17 16 15 15 14 13 12 12 11 11 10 9 9 9 9 9 8 8 8 7 7 8 8 8
8 7 9 8 6 3 5 7 6 7 5 3 2 1 7 9 10 13 14 14 14 14 14 15 17 16 15 14 14 13 13 12 11 11 10 10 9 9 9 9 9 9 9 8 8 9 9 9 9
7 8 11 9 7 5 5 7 6 7 4 3 2 3 4 11 13 13 13 13 12 12 12 13 14 14 14 14 14 12 12 12 11 10 10 10 10 10 10 11 11 10 10 10 10 10 11 11 11
7 9 12 9 7 6 6 8 7 4 1 0 1 5 6 15 16 15 13 12 12 12 11 11 12 11 11 12 13 13 12 12 11 11 12 10 10 11 11 13 10 11 11 11 12 12 12 12 13
8 11 12 7 8 10 10 9 8 5 4 1 1 5 8 14 16 16 15 15 14 13 12 10 10 10 10 8 8 9 10 10 10 9 10 10 8 7 8 5 8 11 12 13 14 13 13 13 10
8 11 9 8 8 10 11 9 7 8 6 7 7 1 9 13 14 14 14 13 13 12 12 10 9 8 9 7 6 5 5 5 8 10 9 8 7 6 7 6 8 10 13 11 11 13 11 10 9
10 10 11 11 9 10 11 9 7 7 9 10 7 0 7 11 11 12 12 11 11 11 11 10 10 9 8 7 5 5 5 5 6 8 10 8 6 7 6 6 7 6 6 7 8 7 9 10 10
12 11 9 10 10 10 10 8 6 6 10 8 6 4 5 6 7 8 9 9 10 10 10 10 9 8 7 6 5 6 6 6 7 6 7 8 7 7 7 6 6 7 6 7 7 8 9 9 10
7 9 11 10 9 7 6 2 2 8 8 7 7 7 5 4 4 5 5 6 7 8 8 7 8 8 7 7 7 6 6 6 6 6 7 8 7 7 7 7 7 8 7 7 7 9 8 8 8
8 10 9 3 3 3 5 4 7 9 6 8 10 10 11 10 8 6 3 3 3 4 5 6 6 7 7 7 7 6 6 6 6 6 7 8 8 8 8 7 8 7 7 7 7 8 8 8 8
9 10 6 5 2 1 8 2 10 7 7 9 9 10 10 11 10 8 6 4 3 2 3 2 3 4 4 4 4 4 5 5 5 5 6 7 8 9 8 8 7 6 6 6 5 6 7 7 7
8 5 2 5 5 1 2 6 8 6 7 8 9 9 10 11 11 9 8 6 5 4 3 2 0 1 1 2 3 4 3 4 4 4 4 5 7 9 8 7 6 6 5 6 6 6 6 6 6
1 2 1 2 5 3 5 8 7 7 7 9 9 9 10 11 10 9 9 8 6 5 4 3 2 2 1 1 1 2 2 3 3 4 5 6 6 8 7 6 5 6 5 5 5 6 6 6 6
3 4 1 3 3 2 6 7 7 6 7 8 8 9 9 9 9 9 9 8 7 6 4 3 3 3 1 1 2 2 2 2 3 3 4 6 6 6 6 5 5 6 6 6 7 7 8 7 5
5 5 2 4 4 2 5 7 7 7 7 7 7 7 7 7 8 8 8 7 7 6 5 4 3 2 1 1 1 2 3 3 2 2 3 4 5 5 5 5 5 6 5 7 7 7 7 6 5
6 5 3 1 4 6 6 7 8 8 7 7 7 6 6 6 6 6 6 6 6 6 5 4 4 2 2 2 0 1 1 2 2 3 3 4 5 5 4 4 5 5 7 6 8 8 10 7 6
4 2 4 4 7 4 6 3 9 8 7 6 6 5 5 5 5 5 5 5 5 4 3 3 2 2 2 1 1 1 2 2 2 2 2 3 3 4 4 5 5 5 6 6 8 9 8 9 8
4 2 4 6 8 6 5 6 8 6 5 5 5 4 4 3 4 3 3 3 3 2 1 1 1 2 2 3 2 3 3 2 2 2 2 3 3 3 4 4 4 5 6 6 7 7 9 8 8
1 4 6 8 9 7 0 6 5 5 4 4 4 3 3 2 2 2 2 2 2 2 2 2 2 2 3 3 3 4 4 4 4 4 4 4 3 3 3 4 4 5 5 6 7 7 9 8 8
5 7 6 6 5 0 3 3 7 6 4 3 3 2 2 1 1 2 3 3 4 4 4 4 4 5 5 5 6 6 6 6 6 7 5 6 5 4 3 4 4 5 5 6 7 7 8 9 9
4 7 7 7 7 2 3 1 7 5 4 2 2 1 2 2 3 4 6 6 6 6 6 6 6 7 7 7 7 7 8 8 7 7 8 7 7 6 5 6 6 7 6 7 6 7 8 8 9
3 4 6 8 7 7 2 7 7 4 3 2 1 2 3 5 6 7 8 9 8 8 8 9 9 9 9 10 9 9 10 10 10 10 10 9 7 8 8 8 8 8 8 8 7 7 8 8 9
5 4 4 5 7 7 1 3 4 4 5 3 4 5 6 7 9 9 9 9 9 9 10 10 10 11 11 12 11 11 11 11 11 11 12 11 11 10 10 11 10 10 10 9 9 9 8 8 9
4 3 5 4 5 8 6 4 7 6 6 7 6 7 9 10 11 11 10 10 11 11 12 11 12 12 12 12 12 13 13 13 13 12 13 12 12 12 12 12 12 12 12 11 10 10 9 10 9
7 7 6 5 5 5 7 5 7 5 5 6 8 9 11 12 13 13 13 12 12 13 13 14 13 14 14 14 14 14 14 14 15 15 14 14 14 13 14 13 13 13 13 12 12 12 11 10 10
Wind_Direction
162 171 190 213 235 230 38 44 13 5 15 22 350 281 312 318 330 17 85 152 151 149 147 156 162 164 163 161 158 157 158 158 158 159 161 162 161 161 162 164 163 160 153 144 137 132 128 125 125
165 170 200 230 261 345 58 32 18 13 21 16 197 263 294 359 31 75 128 148 151 149 151 159 160 165 165 163 162 161 162 161 161 161 162 164 165 166 168 168 166 164 160 155 148 143 138 135 134
165 194 239 246 279 358 19 21 9 11 18 315 322 321 340 25 71 106 132 151 153 151 154 152 161 166 166 165 165 165 165 164 164 165 166 168 170 172 174 174 173 173 170 165 162 157 153 149 149
178 210 232 253 305 24 358 1 355 349 338 295 297 76 88 53 61 118 141 155 154 155 157 151 165 167 169 168 168 168 168 168 168 168 170 173 176 179 182 183 182 183 181 178 176 173 169 167 165
226 245 245 250 333 23 6 355 342 332 341 342 287 14 95 84 96 130 150 158 159 159 157 153 167 169 171 171 172 172 172 172 173 174 176 180 183 187 190 190 191 193 194 192 190 187 185 184 184
230 243 265 290 359 11 18 2 332 336 343 301 240 189 97 111 132 145 154 162 163 161 160 151 166 172 174 175 176 176 176 177 179 182 185 189 193 197 200 200 201 203 206 206 205 204 200 198 198
264 267 280 293 306 327 18 351 335 333 331 351 319 299 115 139 140 148 154 166 165 165 162 159 168 174 178 180 181 180 181 183 186 191 195 199 204 209 213 214 215 216 217 218 219 220 218 214 211
274 275 267 270 286 314 8 341 338 325 353 20 295 307 118 147 147 150 157 165 167 169 170 169 173 176 181 183 185 188 189 190 194 199 204 209 215 219 221 224 216 224 226 227 228 228 227 224 221
252 256 266 279 294 313 342 328 337 334 325 26 340 1 66 136 148 153 158 166 171 177 178 181 175 181 190 192 178 189 195 198 202 205 208 217 224 220 211 222 210 222 231 234 234 233 232 231 224
234 257 271 310 309 310 317 315 325 301 293 344 45 91 114 146 157 163 168 173 175 180 183 187 183 187 194 201 182 203 204 196 212 215 208 215 226 238 242 194 210 232 239 241 239 240 237 235 230
236 261 285 285 293 300 300 308 314 301 314 351 337 72 152 164 169 172 176 178 175 180 185 186 188 198 203 202 202 210 216 206 215 221 221 230 236 232 238 229 207 221 231 236 229 228 232 231 232
246 257 271 280 293 291 295 301 309 331 345 345 338 316 166 175 179 177 174 176 175 182 187 187 189 196 209 219 215 219 223 219 226 215 222 225 230 242 242 240 242 232 229 233 241 238 235 239 240
242 258 264 272 276 282 286 288 308 4 357 358 25 88 151 171 172 173 171 174 174 182 189 188 191 196 204 216 232 230 234 234 234 239 230 236 235 239 241 243 246 249 246 238 239 243 245 245 244
266 273 271 273 276 269 255 278 2 9 6 36 54 67 82 103 129 140 153 166 176 182 188 192 196 199 206 214 223 233 240 237 247 241 245 244 247 247 246 245 243 245 245 249 253 253 250 249 247
263 262 246 232 262 214 205 127 38 14 33 59 63 64 62 60 64 70 88 135 163 177 179 194 203 208 213 228 235 239 244 248 246 246 245 245 249 249 247 248 246 246 246 244 248 256 255 250 244
236 236 213 106 27 175 238 114 46 22 58 68 68 69 70 63 60 58 56 60 81 107 132 177 206 202 216 235 253 262 264 260 255 254 251 243 246 250 249 245 246 247 248 246 243 252 253 252 254
210 220 195 118 54 24 274 74 51 38 69 75 73 71 69 68 60 55 54 56 64 75 87 108 107 173 207 240 245 254 266 276 274 273 268 260 254 248 243 244 244 248 249 249 251 244 250 250 251
204 234 200 99 72 76 90 89 69 57 66 73 74 72 67 63 56 50 53 59 66 73 77 78 77 63 62 15 297 287 295 293 284 277 274 274 265 250 240 236 241 249 245 244 247 255 249 255 250
299 283 286 77 106 88 100 96 79 72 75 77 74 71 69 66 63 58 58 61 64 63 66 64 61 62 64 39 325 307 314 307 296 282 279 271 270 258 242 243 231 239 238 240 240 242 238 241 243
243 250 214 129 142 179 131 111 96 78 71 68 72 71 72 75 70 65 63 64 63 61 54 53 53 72 40 52 326 295 311 301 286 305 320 304 287 267 241 233 239 236 239 237 234 234 246 237 224
238 267 294 182 165 189 186 158 134 110 98 89 82 80 75 67 65 66 63 61 61 59 53 48 42 41 32 22 24 288 267 282 323 342 335 322 307 299 286 259 253 252 247 234 230 226 233 241 229
268 330 285 237 232 217 238 255 129 130 118 100 87 81 75 71 69 66 66 63 62 57 47 39 32 31 18 343 356 347 328 329 337 313 323 322 314 317 308 288 270 258 254 244 235 228 231 237 236
351 356 269 259 263 262 219 273 119 136 121 105 92 82 73 65 62 62 56 54 49 43 31 11 2 351 337 321 309 293 305 312 308 298 295 288 292 293 294 290 285 271 264 259 253 245 240 235 241
190 232 228 238 252 250 55 292 105 90 61 86 93 89 77 67 59 42 19 1 342 323 310 306 308 302 299 293 293 289 296 296 296 289 289 281 276 269 279 284 284 275 273 267 259 254 244 244 244
255 275 259 242 239 268 91 290 71 65 58 47 48 56 46 25 355 338 327 324 318 313 314 308 304 297 295 290 287 284 281 278 272 277 277 280 283 277 270 281 279 280 279 274 268 258 258 249 241
323 301 311 310 314 332 161 76 85 72 75 66 50 13 342 326 325 322 316 313 309 308 304 300 296 289 289 287 284 281 278 277 282 279 285 282 281 281 279 268 266 266 266 266 266 265 256 250 245
310 334 337 291 287 285 122 116 122 106 82 38 352 318 320 321 319 315 314 314 312 310 308 306 302 294 288 285 283 277 275 278 283 281 269 271 270 271 264 263 263 263 261 260 258 258 258 256 248
10 342 288 304 318 305 320 108 79 45 12 354 334 329 324 319 317 318 316 315 312 308 307 307 302 296 291 287 283 282 279 275 273 273 275 275 274 270 267 264 263 261 259 257 256 258 250 252 254
19 19 341 321 329 317 327 59 59 22 360 341 335 331 325 323 322 320 318 316 311 309 308 307 303 300 297 293 290 287 283 280 276 270 268 268 266 266 261 257 257 257 257 255 252 255 255 249 250
45 21 356 337 351 321 310 65 76 20 350 334 329 330 331 327 325 324 323 320 316 313 312 310 307 303 300 299 295 290 287 284 280 275 271 269 266 263 260 257 255 253 253 252 251 251 251 248 247